Location: Unspecified
(0.0000°N, 0.0000°E)
Time: 18:49:24
(UTC+00:00)

STARLINK-36413 - Pass Details

Date: 11 January 2026
Orbit: 254 x 257 km, 43.0° (Epoch: 11 January)

Event Time Altitude Azimuth Distance (km) Brightness Sun altitude
Rises 18:41:28 0° 284° (WNW) 1,833 6.3 -7.8°
Reaches altitude 10° 18:44:25 10° 240° (WSW) 1,033 5.7 -8.4°
Maximum altitude 18:45:02 11° 225° (SW) 998 5.2 -8.6°
Drops below altitude 10° 18:45:39 10° 209° (SSW) 1,033 4.9 -8.7°
Sets 18:48:36 0° 166° (SSE) 1,835 5.4 -9.4°
